Time,TemperatureF,DewpointF,PressureIn,WindDirection,WindDirectionDegrees,WindSpeedMPH,WindSpeedGustMPH,Humidity,HourlyPrecipIn,Conditions,Clouds,dailyrainin,SoftwareType,DateUTC
2013-09-11 00:23:00,61.0,57.0,30.04,North,-999,-999.0,-999.0,87,-99.99,,,-99.99,,2013-09-11 05:23:00,
2013-09-11 00:34:00,61.0,57.0,30.04,North,-999,-999.0,-999.0,87,-99.99,,,-99.99,,2013-09-11 05:34:00,
2013-09-11 00:42:00,61.0,57.0,30.04,North,-999,-999.0,-999.0,87,-99.99,,,-99.99,,2013-09-11 05:42:00,
2013-09-11 01:22:00,61.0,57.0,30.04,North,-999,-999.0,-999.0,87,-99.99,,,-99.99,,2013-09-11 06:22:00,
2013-09-11 01:42:00,61.0,55.0,30.04,North,-999,-999.0,-999.0,82,-99.99,,,-99.99,,2013-09-11 06:42:00,
2013-09-11 02:23:00,61.0,55.0,30.04,North,-999,-999.0,-999.0,82,-99.99,,,-99.99,,2013-09-11 07:23:00,
2013-09-11 02:42:00,64.0,57.0,30.04,North,-999,-999.0,-999.0,77,-99.99,,,-99.99,,2013-09-11 07:42:00,
2013-09-11 03:22:00,66.0,57.0,30.05,North,-999,-999.0,-999.0,72,-99.99,,,-99.99,,2013-09-11 08:22:00,
2013-09-11 03:42:00,64.0,55.0,30.05,North,-999,-999.0,-999.0,72,-99.99,,,-99.99,,2013-09-11 08:42:00,
2013-09-11 04:21:00,64.0,55.0,30.05,North,-999,-999.0,-999.0,72,-99.99,,,-99.99,,2013-09-11 09:21:00,
2013-09-11 04:43:00,66.0,55.0,30.05,North,-999,-999.0,-999.0,68,-99.99,,,-99.99,,2013-09-11 09:43:00,
2013-09-11 05:23:00,64.0,55.0,30.06,North,-999,-999.0,-999.0,72,-99.99,,,-99.99,,2013-09-11 10:23:00,
2013-09-11 05:42:00,64.0,55.0,30.06,North,-999,-999.0,-999.0,72,-99.99,,,-99.99,,2013-09-11 10:42:00,
2013-09-11 06:21:00,63.0,55.0,30.07,North,-999,-999.0,-999.0,77,-99.99,,,-99.99,,2013-09-11 11:21:00,
2013-09-11 06:33:00,63.0,55.0,30.07,North,-999,-999.0,-999.0,77,-99.99,,,-99.99,,2013-09-11 11:33:00,
2013-09-11 06:42:00,63.0,55.0,30.07,North,-999,-999.0,-999.0,77,-99.99,,,-99.99,,2013-09-11 11:42:00,
2013-09-11 07:11:00,63.0,55.0,30.08,North,-999,-999.0,-999.0,77,-99.99,,,-99.99,,2013-09-11 12:11:00,
2013-09-11 07:21:00,63.0,55.0,30.09,North,-999,-999.0,-999.0,77,-99.99,,,-99.99,,2013-09-11 12:21:00,
2013-09-11 07:42:00,63.0,55.0,30.09,North,-999,-999.0,-999.0,77,-99.99,,,-99.99,,2013-09-11 12:42:00,
2013-09-11 08:22:00,63.0,55.0,30.10,North,-999,-999.0,-999.0,77,-99.99,,,-99.99,,2013-09-11 13:22:00,
2013-09-11 08:42:00,64.0,57.0,30.10,North,-999,-999.0,-999.0,77,-99.99,,,-99.99,,2013-09-11 13:42:00,
2013-09-11 08:52:00,64.0,57.0,30.10,North,-999,-999.0,-999.0,77,-99.99,,,-99.99,,2013-09-11 13:52:00,
2013-09-11 09:02:00,64.0,57.0,30.10,North,-999,-999.0,-999.0,77,-99.99,,,-99.99,,2013-09-11 14:02:00,
2013-09-11 09:22:00,68.0,57.0,30.10,North,-999,-999.0,-999.0,68,-99.99,,,-99.99,,2013-09-11 14:22:00,
2013-09-11 09:42:00,70.0,59.0,30.11,North,-999,-999.0,-999.0,68,-99.99,,,-99.99,,2013-09-11 14:42:00,
2013-09-11 09:52:00,72.0,59.0,30.11,North,-999,-999.0,-999.0,64,-99.99,,,-99.99,,2013-09-11 14:52:00,
2013-09-11 10:02:00,72.0,59.0,30.11,North,-999,-999.0,-999.0,64,-99.99,,,-99.99,,2013-09-11 15:02:00,
2013-09-11 10:11:00,72.0,59.0,30.11,North,-999,-999.0,-999.0,64,-99.99,,,-99.99,,2013-09-11 15:11:00,
2013-09-11 10:22:00,72.0,59.0,30.11,North,-999,-999.0,-999.0,64,-99.99,,,-99.99,,2013-09-11 15:22:00,
2013-09-11 10:43:00,73.0,59.0,30.12,North,-999,-999.0,-999.0,60,-99.99,,,-99.99,,2013-09-11 15:43:00,
2013-09-11 11:23:00,77.0,57.0,30.12,North,-999,-999.0,-999.0,50,-99.99,,,-99.99,,2013-09-11 16:23:00,
2013-09-11 11:43:00,79.0,55.0,30.12,North,-999,-999.0,-999.0,44,-99.99,,,-99.99,,2013-09-11 16:43:00,
2013-09-11 12:12:00,81.0,55.0,30.12,North,-999,-999.0,-999.0,41,-99.99,,,-99.99,,2013-09-11 17:12:00,
2013-09-11 12:23:00,81.0,55.0,30.12,North,-999,-999.0,-999.0,41,-99.99,,,-99.99,,2013-09-11 17:23:00,
2013-09-11 12:34:00,81.0,55.0,30.12,North,-999,-999.0,-999.0,41,-99.99,,,-99.99,,2013-09-11 17:34:00,
2013-09-11 13:12:00,82.0,52.0,30.11,North,-999,-999.0,-999.0,34,-99.99,,,-99.99,,2013-09-11 18:12:00,
2013-09-11 13:22:00,82.0,52.0,30.11,North,-999,-999.0,-999.0,34,-99.99,,,-99.99,,2013-09-11 18:22:00,
2013-09-11 13:42:00,84.0,48.0,30.11,North,-999,-999.0,-999.0,28,-99.99,,,-99.99,,2013-09-11 18:42:00,
2013-09-11 14:22:00,86.0,48.0,30.10,North,-999,-999.0,-999.0,27,-99.99,,,-99.99,,2013-09-11 19:22:00,
2013-09-11 14:42:00,86.0,48.0,30.10,North,-999,-999.0,-999.0,27,-99.99,,,-99.99,,2013-09-11 19:42:00,
2013-09-11 14:52:00,86.0,48.0,30.10,North,-999,-999.0,-999.0,27,-99.99,,,-99.99,,2013-09-11 19:52:00,
2013-09-11 15:02:00,86.0,48.0,30.10,North,-999,-999.0,-999.0,27,-99.99,,,-99.99,,2013-09-11 20:02:00,
2013-09-11 15:12:00,86.0,48.0,30.10,North,-999,-999.0,-999.0,27,-99.99,,,-99.99,,2013-09-11 20:12:00,
2013-09-11 15:22:00,86.0,46.0,30.10,North,-999,-999.0,-999.0,25,-99.99,,,-99.99,,2013-09-11 20:22:00,
2013-09-11 15:42:00,86.0,46.0,30.10,North,-999,-999.0,-999.0,25,-99.99,,,-99.99,,2013-09-11 20:42:00,
2013-09-11 15:52:00,86.0,46.0,30.10,North,-999,-999.0,-999.0,25,-99.99,,,-99.99,,2013-09-11 20:52:00,
2013-09-11 16:02:00,86.0,46.0,30.10,North,-999,-999.0,-999.0,25,-99.99,,,-99.99,,2013-09-11 21:02:00,
2013-09-11 16:22:00,86.0,46.0,30.10,North,-999,-999.0,-999.0,25,-99.99,,,-99.99,,2013-09-11 21:22:00,
2013-09-11 16:44:00,84.0,48.0,30.10,North,-999,-999.0,-999.0,28,-99.99,,,-99.99,,2013-09-11 21:44:00,
2013-09-11 17:13:00,84.0,52.0,30.09,North,-999,-999.0,-999.0,32,-99.99,,,-99.99,,2013-09-11 22:13:00,
2013-09-11 17:24:00,84.0,52.0,30.09,North,-999,-999.0,-999.0,32,-99.99,,,-99.99,,2013-09-11 22:24:00,
2013-09-11 17:43:00,84.0,46.0,30.09,North,-999,-999.0,-999.0,26,-99.99,,,-99.99,,2013-09-11 22:43:00,
2013-09-11 18:22:00,81.0,46.0,30.10,North,-999,-999.0,-999.0,30,-99.99,,,-99.99,,2013-09-11 23:22:00,
2013-09-11 18:34:00,81.0,46.0,30.10,North,-999,-999.0,-999.0,30,-99.99,,,-99.99,,2013-09-11 23:34:00,
2013-09-11 18:42:00,81.0,46.0,30.10,North,-999,-999.0,-999.0,30,-99.99,,,-99.99,,2013-09-11 23:42:00,
2013-09-11 18:53:00,81.0,46.0,30.10,North,-999,-999.0,-999.0,30,-99.99,,,-99.99,,2013-09-11 23:53:00,
2013-09-11 19:22:00,79.0,43.0,30.11,North,-999,-999.0,-999.0,27,-99.99,,,-99.99,,2013-09-12 00:22:00,
2013-09-11 19:32:00,79.0,43.0,30.11,North,-999,-999.0,-999.0,27,-99.99,,,-99.99,,2013-09-12 00:32:00,
2013-09-11 19:42:00,79.0,43.0,30.11,North,-999,-999.0,-999.0,27,-99.99,,,-99.99,,2013-09-12 00:42:00,
2013-09-11 19:52:00,73.0,45.0,30.12,North,-999,-999.0,-999.0,35,-99.99,,,-99.99,,2013-09-12 00:52:00,
2013-09-11 20:01:00,73.0,45.0,30.12,North,-999,-999.0,-999.0,35,-99.99,,,-99.99,,2013-09-12 01:01:00,
2013-09-11 20:22:00,72.0,45.0,30.14,North,-999,-999.0,-999.0,37,-99.99,,,-99.99,,2013-09-12 01:22:00,
2013-09-11 20:42:00,70.0,46.0,30.15,North,-999,-999.0,-999.0,43,-99.99,,,-99.99,,2013-09-12 01:42:00,
2013-09-11 20:52:00,70.0,46.0,30.15,North,-999,-999.0,-999.0,43,-99.99,,,-99.99,,2013-09-12 01:52:00,
2013-09-11 21:03:00,70.0,46.0,30.15,North,-999,-999.0,-999.0,43,-99.99,,,-99.99,,2013-09-12 02:03:00,
2013-09-11 21:22:00,70.0,46.0,30.16,North,-999,-999.0,-999.0,43,-99.99,,,-99.99,,2013-09-12 02:22:00,
2013-09-11 22:11:00,66.0,46.0,30.19,North,-999,-999.0,-999.0,48,-99.99,,,-99.99,,2013-09-12 03:11:00,
2013-09-11 22:22:00,63.0,46.0,30.19,North,-999,-999.0,-999.0,55,-99.99,,,-99.99,,2013-09-12 03:22:00,
2013-09-11 22:34:00,63.0,46.0,30.19,North,-999,-999.0,-999.0,55,-99.99,,,-99.99,,2013-09-12 03:34:00,
2013-09-11 22:45:00,63.0,46.0,30.19,North,-999,-999.0,-999.0,55,-99.99,,,-99.99,,2013-09-12 03:45:00,
2013-09-11 23:24:00,57.0,46.0,30.20,North,-999,-999.0,-999.0,67,-99.99,,,-99.99,,2013-09-12 04:24:00,
2013-09-11 23:54:00,55.0,46.0,30.20,North,-999,-999.0,-999.0,71,-99.99,,,-99.99,,2013-09-12 04:54:00,